Погода в Усть-Выми

Россия / Республика Коми     62°13′31″N   50°23′41″E
темп.,
°C
ветер,
м/с
пор.,
м/с
влажн.,
%
обл.,
%
осадки,
мм/ч
давл.,
гПа
погр.,
м
18 апреля, вс
вс1800:00+1ссв59779 0.3 10261080
03:00−2ссв49715 0.3 1030793
06:00−3ссв487238 0.0 1032703
09:000св465469 0.0 10341218
12:00+3св45425 0.0 10351597
15:00+3св34395 0.0 10361710
18:00+1св25515 0.0 1036174
21:00−3всв13765 0.0 103854
19 апреля, пн
пн1900:00−3в13765 0.0 103870
03:00−4ююв11795 0.0 103933
06:00−1ю11608 0.0 1039192
09:00+3зюз11415 0.0 10391096
12:00+5з12353 0.0 10381348
15:00+5зсз22360 0.0 10361416
18:00+4з11490 0.0 103519
21:000зюз11625 0.0 103612
20 апреля, вт
вт2000:00−1зюз24655 0.0 103668
03:00−1зюз25709 0.0 1036114
06:00+1з266119 0.0 1035216
09:00+6з344339 0.0 1034863
12:00+8з34368 0.0 10331253
15:00+9з333516 0.0 10321305
18:00+7зсз11505 0.0 103110
21:00+3зюз11603 0.0 103110
21 апреля, ср
ср2100:00+2ююз11665 0.0 103110
03:00+1ююв11700 0.0 103110
06:00+3ююв13640 0.0 1031114
09:00+8юв34440 0.0 1030683
12:00+11ююв463386 0.0 10271311
15:00+12ююв5832100 0.0 10251558
18:00+10ююв51044100 0.0 10231010
21:00+8ююв51354100 0.0 1022889
22 апреля, чт
чт2200:00+7ююв51355100 0.0 10201042
03:00+7ююв61356100 0.0 10191195
06:00+4ююв61386100 0.3 1018958
09:00+4ю51292100 0.6 1018963
12:00+4ю51296100 0.1 1019866
15:00+5ю51183100 0.2 10201029
18:00+5ю6128457 0.0 1020785
21:00+5ю61382100 0.0 1021950